STARLINK-2745 (48671 NORAD) Tracking and Keplerian Element Data

This shows tracking and keplerian element data for the satellite.

Feedback or suggestion? Click here.




ElementValue
Catalog48671
NameSTARLINK-2745
Epoch Orbit1150
Epoch Day214.91667824
Epoch Year2021
RAAN92.4785
Inclination53.0454
Eccentricity0.0001567
Argument of Perigee53.0401
Mean Anonmoly256.3218
Mean Motion15.12093869
Decay Rate-0.00922019
L11 48671U 21044AK 21214.91667824 -.00922019 00000-0 -57231-1 0 9994
L22 48671 53.0454 92.4785 0001567 53.0401 256.3218 15.12093869 11504

Live tracking and technical data element details for STARLINK-2745 (NORAD 48671). STARLINK-2745 can be tracked NOW for your location showing map with azimuth and elevation plus other details from your city location.

Track the satellite on the map from your city or location and see movement details for azimuth, elevation, latitude, longitude, range, height, and movement on the map or in text.







IsCatalogInMostPopularTable: catalog: 48671, numindb: 22
Update: records affected: 1



GetName: 48671 STARLINK-2745

Hit Count: updated at: Wed, 04 Aug 2021 00:43:54 GMT